EST,Max TemperatureF,Mean TemperatureF,Min TemperatureF,Max Dew PointF,MeanDew PointF,Min DewpointF,Max Humidity, Mean Humidity, Min Humidity, Max Sea Level PressureIn, Mean Sea Level PressureIn, Min Sea Level PressureIn, Max VisibilityMiles, Mean VisibilityMiles, Min VisibilityMiles, Max Wind SpeedMPH, Mean Wind SpeedMPH, Max Gust SpeedMPH,PrecipitationIn, CloudCover, Events, WindDirDegrees
2011-12-1,56,42,28,35,30,25,92,65,38,30.39,30.33,30.22,10,10,10,10,1,14,0.00,0,Fog,20
2011-12-2,60,44,27,41,32,25,100,70,40,30.51,30.44,30.38,10,6,0,6,1,8,0.00,2,Fog,341
2011-12-3,64,48,32,38,31,26,92,59,25,30.52,30.45,30.39,10,10,10,17,3,25,0.00,4,Fog,163
2011-12-4,63,53,43,48,41,32,77,64,50,30.40,30.32,30.22,10,10,10,16,5,22,0.00,6,,176
2011-12-5,70,59,48,58,53,44,90,73,55,30.19,30.10,29.98,10,8,2,21,8,29,0.23,7,Rain,172
2011-12-6,62,56,50,61,56,48,97,89,80,30.04,30.00,29.96,10,5,1,13,5,18,1.82,8,Rain-Thunderstorm,226
2011-12-7,50,44,37,48,40,28,93,82,70,30.26,29.98,29.88,10,6,2,21,7,26,0.59,8,Rain,319
2011-12-8,48,40,31,32,27,17,89,59,29,30.36,30.30,30.26,10,10,10,14,4,15,0.00,2,,359
2011-12-9,52,40,28,37,30,25,100,72,44,30.34,30.29,30.24,10,7,0,9,1,12,0.00,5,Fog,342
2011-12-10,47,41,34,31,27,21,82,66,49,30.50,30.44,30.33,10,10,10,15,8,21,0.00,3,,11
2011-12-11,50,41,31,33,27,20,82,64,46,30.56,30.48,30.43,10,10,10,8,2,12,0.00,3,,17
2011-12-12,51,44,36,41,35,32,85,68,50,30.48,30.45,30.42,10,10,10,6,1,7,T,7,,43
2011-12-13,59,52,45,50,46,42,100,86,72,30.51,30.45,30.40,10,5,1,5,0,7,0.00,7,Fog,340
2011-12-14,68,56,43,51,45,41,100,74,48,30.40,30.32,30.18,10,4,0,10,2,15,0.00,6,Fog,197
2011-12-15,66,58,50,58,53,46,84,76,67,30.22,30.16,30.10,10,9,2,17,6,23,0.29,7,Rain,179
2011-12-16,58,50,42,55,50,39,100,90,80,30.28,30.20,30.15,10,5,1,13,6,15,0.82,8,Rain,1
2011-12-17,52,43,34,38,31,24,86,61,35,30.38,30.32,30.27,10,10,9,13,4,15,0.00,4,,342
2011-12-18,54,41,28,34,30,26,92,67,41,30.43,30.36,30.32,10,10,10,8,1,10,0.00,1,,90
2011-12-19,58,44,30,38,32,27,92,64,36,30.33,30.26,30.19,10,10,10,12,2,15,0.00,4,Fog,189
2011-12-20,61,52,43,55,49,39,93,78,62,30.18,30.10,30.04,10,8,1,14,3,23,T,7,Rain,163
2011-12-21,66,57,48,63,56,46,97,75,52,30.02,29.94,29.89,10,6,1,16,7,24,0.96,8,Rain,190
2011-12-22,54,50,46,53,48,45,100,89,77,30.10,29.97,29.84,10,9,2,14,3,22,0.95,7,Fog-Rain,324
2011-12-23,50,45,40,45,40,35,86,76,66,30.36,30.26,30.11,10,10,10,13,7,18,0.00,7,,331
2011-12-24,51,45,38,36,35,32,85,71,56,30.49,30.41,30.36,10,10,10,14,5,16,0.00,5,,346
2011-12-25,49,41,33,42,36,32,92,84,76,30.41,30.36,30.30,10,6,0,8,1,10,0.00,6,Fog,156
2011-12-26,49,40,30,40,32,28,96,78,60,30.38,30.27,30.02,10,6,0,14,3,20,0.05,6,Fog-Rain,30
2011-12-27,50,45,40,45,40,34,92,81,70,30.04,29.83,29.71,10,6,1,30,11,47,0.82,7,Rain,215
2011-12-28,51,41,31,36,30,27,89,64,38,30.16,30.10,30.04,10,10,10,17,3,25,0.00,3,,324
2011-12-29,56,43,29,36,31,25,92,65,38,30.11,30.05,29.97,10,10,10,14,2,17,0.00,2,,187
2011-12-30,59,46,33,50,42,30,92,80,67,30.04,29.97,29.86,10,10,9,20,6,25,0.00,5,,187
2011-12-31,61,48,34,42,37,32,92,66,39,30.17,30.09,29.96,10,10,10,8,1,12,0.00,2,,181